Flag for China Weather past 2 weeks in Tianjin, Tianjin Municipality, China

Now
30 °F

Clear.


Feels Like: 24 °F
Forecast: 17 / 37 °F
Wind: 6 mph from North

Location: Tianjin / Zhangguizhu

Current Time: Jan 30, 2015 at 5:48:13 PM

Latest Report: Jan 30, 2015 at 5:30 PM


Visibility: 10 mi

Pressure: 30.57 "Hg

Humidity: 24%

Dew point: -2 °F

Location of TianjinLocation

Historic Weather in Tianjin — Graph

°F

Tianjin temperature yesterday

Maximum temperature yesterday: 39 °F (at 2:30 PM)
Minimum temperature yesterday: 27 °F (at 7:30 AM)
Average temperature yesterday: 32 °F

Past Weeks' High & Low Weather Summary

 TemperatureHumidityPressure
High45 °F (Jan 18, 1:00 PM)100% (Jan 15, 5:30 PM)30.69 "Hg (Jan 15, 5:30 PM)
Low16 °F (Jan 27, 7:00 AM)14% (Jan 30, 2:00 PM)30.01 "Hg (Jan 18, 1:00 PM)
Average31 °F52%30.34 "Hg
* Reported Jan 15 4:00 PM — Jan 30 4:30 PM, Tianjin, Weather by CustomWeather, © 2014

Note: Actual official high and low records may vary slightly from our data, if they occured in-between our weather recording intervals... More about our weather records

Advertising

Tianjin weather history for previous 24 hours

 ConditionsComfort  
Time TempWeatherWind HumidityBarometerVisibility
4:30 PM
Jan 30
34 °FSunny.15 mph16%30.57 "Hg10 mi
4:00 PM34 °FSunny.17 mph15%30.57 "Hg10 mi
3:30 PM36 °FSunny.20 mph14%30.54 "Hg10 mi
3:00 PM36 °FSunny.17 mph14%30.57 "Hg10 mi
2:30 PM36 °FSunny.17 mph14%30.57 "Hg10 mi
2:00 PM36 °FPassing clouds.15 mph14%30.57 "HgN/A
1:30 PM34 °FSunny.15 mph16%30.57 "Hg10 mi
1:00 PM34 °FSunny.15 mph16%30.57 "Hg10 mi
12:30 PM34 °FSunny.15 mph16%30.60 "Hg10 mi
12:00 PM34 °FSunny.15 mph16%30.60 "Hg10 mi
11:30 AM32 °FSunny.15 mph17%30.63 "Hg10 mi
11:00 AM32 °FSunny.15 mph23%30.63 "Hg10 mi
10:30 AM30 °FSunny.20 mph24%30.63 "Hg10 mi
10:00 AM30 °FSunny.20 mph24%30.63 "Hg10 mi
9:30 AM28 °FSunny.13 mph24%30.63 "Hg10 mi
9:00 AM27 °FSunny.13 mph28%30.60 "Hg10 mi
8:30 AM25 °FSunny.13 mph30%30.60 "Hg10 mi
8:00 AM21 °FSunny.13 mph35%30.60 "Hg10 mi
7:30 AM19 °FSunny.13 mph38%30.57 "Hg10 mi
7:00 AM18 °FClear.10 mph41%30.57 "Hg10 mi
6:30 AM19 °FClear.10 mph38%30.54 "Hg10 mi
6:00 AM18 °FClear.10 mph41%30.54 "Hg10 mi
5:30 AM19 °FClear.13 mph38%30.54 "Hg10 mi
5:00 AM21 °FClear.13 mph35%30.51 "Hg10 mi
4:30 AM21 °FClear.13 mph35%30.51 "Hg10 mi
4:00 AM21 °FClear.10 mph35%30.51 "Hg10 mi
3:30 AM23 °FClear.15 mph33%30.51 "Hg10 mi
3:00 AM23 °FClear.17 mph36%30.51 "Hg10 mi
2:30 AM23 °FClear.15 mph36%30.51 "Hg10 mi
2:00 AM25 °FClear.15 mph33%30.51 "Hg10 mi
1:30 AM27 °FClear.15 mph31%30.51 "Hg10 mi
1:00 AM27 °FClear.15 mph31%30.48 "Hg10 mi
12:30 AM27 °FClear.20 mph31%30.51 "Hg10 mi
12:00 AM27 °FClear.20 mph33%30.48 "Hg10 mi
11:30 PM
Jan 29
28 °FClear.20 mph31%30.48 "Hg10 mi
11:00 PM28 °FClear.15 mph31%30.48 "Hg10 mi
10:30 PM30 °FClear.15 mph26%30.48 "Hg10 mi
10:00 PM30 °FClear.15 mph26%30.45 "Hg10 mi
9:30 PM32 °FClear.15 mph27%30.45 "Hg10 mi
9:00 PM32 °FClear.15 mph23%30.45 "Hg10 mi
8:30 PM34 °FClear.13 mph23%30.42 "Hg10 mi
8:00 PM34 °FClear.15 mph23%30.42 "Hg10 mi
7:30 PM34 °FClear.15 mph23%30.39 "Hg10 mi
7:00 PM36 °FClear.10 mph23%30.39 "Hg10 mi
6:30 PM36 °FClear.10 mph21%30.36 "Hg10 mi
6:00 PM36 °FClear.10 mph21%30.36 "Hg10 mi
5:30 PM36 °FClear.13 mph23%30.33 "Hg5 mi
5:00 PM37 °FClear.10 mph30%30.33 "Hg5 mi
Weather by CustomWeather, © 2014

See weather overviewHow to use our weather pages